[[{"header":{"parameterUnit":"m.s-1","parameterCategory":1,"la1":30.2991,"la2":30.254,"lo1":-89.0895,"lo2":-89.0444,"dy":0.0017,"dx":0.0017,"nx":28,"ny":28,"refTime":"2025-03-17T03:00:00:Z","depth":0,"parameterNumber":2,"parameterNumberName":"U-component_of_WINDS"},"data":[0,0,0,0,0,0,0,0,0,0,0,0,0,0,0,0,0,0,0,0,0,0,0,0,0,0,0,0,0,0,0,0,0,0,0,0,0,0,0,0,0,0,0,0,0,0,0,0,0,0,0,0,0,0,0,0,0,0,-1.1306,-1.1307,0,-1.134,-1.134,-1.1341,-1.1351,-1.1351,-1.1351,-1.1351,-1.1387,-1.1388,-1.1389,0,0,0,0,0,0,0,0,0,0,0,0,0,-1.1253,-1.1254,-1.1306,-1.1307,-1.1307,-1.134,-1.134,-1.1341,-1.1351,-1.1351,-1.1351,-1.1351,-1.1386,-1.1388,-1.1389,0,0,0,0,0,0,0,0,0,0,0,0,0,-1.1281,-1.1255,-1.1306,-1.1316,-1.1318,-1.134,-1.134,-1.1341,-1.1352,-1.1351,-1.1351,-1.1351,-1.1386,-1.1388,-1.1389,-1.1404,0,0,-1.1394,-1.1395,0,0,0,0,0,0,0,0,-1.1279,-1.1283,-1.1314,-1.1316,-1.1317,-1.1341,-1.1335,-1.1362,-1.1352,-1.1339,-1.1351,-1.1351,-1.1372,-1.1375,-1.1382,-1.1406,-1.1408,-1.1394,-1.1395,-1.1396,-1.1397,0,0,0,0,0,0,0,-1.1277,-1.1281,-1.132,-1.1315,-1.1317,-1.132,-1.1324,-1.134,-1.1356,-1.134,-1.1341,-1.1344,-1.1373,-1.138,-1.1383,-1.1408,-1.1394,-1.1396,-1.1397,-1.1398,-1.1448,-1.1448,0,0,0,0,0,0,-1.1273,-1.128,-1.1319,-1.1321,-1.1297,-1.1321,-1.1325,-1.1334,-1.1356,-1.1359,-1.1345,-1.1345,-1.1377,-1.1381,-1.1384,-1.1404,-1.1396,-1.1398,-1.1399,-1.1447,-1.1448,-1.1448,0,0,0,0,0,0,-1.1272,-1.1277,-1.1317,-1.13,-1.1306,-1.1322,-1.1332,-1.1335,-1.1342,-1.136,-1.1363,-1.1349,-1.1377,-1.1382,-1.1399,-1.1405,-1.1398,-1.14,-1.1447,-1.1448,-1.1448,-1.1443,0,0,0,0,0,0,-1.1271,-1.1276,-1.1281,-1.13,-1.1307,-1.1331,-1.1332,-1.1335,-1.1345,-1.1345,-1.1365,-1.1368,-1.1377,-1.1397,-1.1401,-1.1407,-1.1401,-1.1447,-1.1447,-1.1448,-1.1442,-1.1443,-1.1443,0,0,0,0,0,-1.1269,-1.1279,-1.1282,-1.1286,-1.1313,-1.1332,-1.1335,-1.1346,-1.1345,-1.1351,-1.1363,-1.1367,-1.1404,-1.1399,-1.1403,-1.141,-1.1446,-1.1447,-1.1448,-1.1442,-1.1443,-1.1443,0,0,0,0,0,0,-1.126,-1.1281,-1.1285,-1.1301,-1.1314,-1.1333,-1.1341,-1.1346,-1.136,-1.136,-1.1373,-1.1378,-1.1395,-1.1404,-1.1398,-1.1426,-1.1425,-1.1427,-1.1419,-1.142,-1.1421,-1.1418,-1.1403,0,0,0,0,0,-1.126,-1.1273,-1.1291,-1.1303,-1.131,-1.1324,-1.1333,-1.134,-1.1354,-1.136,-1.1373,-1.1387,-1.1402,-1.1412,-1.1426,-1.1444,-1.1449,-1.1451,-1.1452,-1.1452,-1.1453,-1.1464,-1.1466,-1.1451,-1.1451,-1.1451,0,0,-1.126,-1.1273,-1.128,-1.1302,-1.1313,-1.1326,-1.1329,-1.1343,-1.1353,-1.1362,-1.138,-1.139,-1.1407,-1.1425,-1.1434,-1.1434,-1.1459,-1.1453,-1.1453,-1.1454,-1.1465,-1.1467,-1.1468,-1.1451,-1.1451,-1.1451,0,0,-1.1267,-1.1278,-1.129,-1.1302,-1.1319,-1.1328,-1.1331,-1.135,-1.1357,-1.1375,-1.1382,-1.1395,-1.142,-1.1432,-1.1442,-1.1455,-1.146,-1.1459,-1.1462,-1.1472,-1.1473,-1.1474,-1.148,-1.1481,-1.146,-1.146,-1.146,0,-1.1266,-1.1285,-1.1296,-1.131,-1.1319,-1.1328,-1.1341,-1.1352,-1.1373,-1.138,-1.1379,-1.1412,-1.1424,-1.1445,-1.1448,-1.1456,-1.146,-1.1457,-1.1472,-1.1473,-1.1475,-1.148,-1.1482,-1.146,-1.146,-1.146,-1.146,0,-1.1283,-1.1296,-1.1304,-1.1324,-1.1335,-1.1348,-1.1361,-1.1371,-1.1378,-1.1388,-1.1406,-1.1421,-1.144,-1.1445,-1.1452,-1.1468,-1.1468,-1.1469,-1.1469,-1.1476,-1.1481,-1.1483,-1.146,-1.146,-1.146,-1.146,0,0,-1.1285,-1.1311,-1.1314,-1.1323,-1.1343,-1.1354,-1.1368,-1.1386,-1.1394,-1.1409,-1.1421,-1.1443,-1.1445,-1.1456,-1.1464,-1.1473,-1.1484,-1.1475,-1.1475,-1.1476,-1.1503,-1.1502,-1.1504,-1.1487,-1.1488,-1.1488,-1.1502,0,-1.1295,-1.1319,-1.133,-1.135,-1.1364,-1.1373,-1.1386,-1.14,-1.141,-1.1423,-1.1435,-1.145,-1.1451,-1.1458,-1.1468,-1.148,-1.1489,-1.148,-1.15,-1.1501,-1.1495,-1.1506,-1.1505,-1.1517,-1.1504,-1.1505,-1.1505,0,-1.1309,-1.1324,-1.1345,-1.1364,-1.137,-1.1381,-1.1399,-1.1411,-1.1428,-1.1435,-1.1447,-1.1455,-1.1471,-1.1469,-1.1492,-1.1485,-1.1495,-1.1502,-1.1503,-1.1505,-1.1503,-1.1509,-1.1521,-1.1523,-1.1508,-1.1508,-1.1507,0,-1.1309,-1.1334,-1.135,-1.1358,-1.138,-1.1388,-1.1398,-1.1414,-1.1425,-1.144,-1.1447,-1.1465,-1.1474,-1.1488,-1.1501,-1.1498,-1.1523,-1.1522,-1.153,-1.1529,-1.1534,-1.1534,-1.1548,-1.154,-1.154,-1.154,-1.154,0,-1.1319,-1.1332,-1.1351,-1.1361,-1.1376,-1.1389,-1.1403,-1.1414,-1.1429,-1.1442,-1.1451,-1.1463,-1.1479,-1.1494,-1.1504,-1.1522,-1.1526,-1.1533,-1.1535,-1.1532,-1.1531,-1.1538,-1.1538,-1.154,-1.154,-1.154,-1.154,0,-1.1321,-1.1334,-1.1353,-1.1373,-1.1378,-1.1388,-1.1406,-1.1417,-1.1427,-1.1444,-1.1448,-1.1466,-1.1483,-1.1498,-1.1521,-1.1528,-1.1547,-1.1549,-1.1541,-1.1542,-1.1549,-1.1548,-1.1569,-1.1572,-1.1561,-1.1561,-1.1561,0,-1.1327,-1.1337,-1.1358,-1.1367,-1.1377,-1.1391,-1.1402,-1.1415,-1.1426,-1.1446,-1.1455,-1.1473,-1.1488,-1.1516,-1.1531,-1.155,-1.1553,-1.1559,-1.1556,-1.1552,-1.1554,-1.1553,-1.1554,-1.1559,-1.1559,-1.1559,-1.1559,0,-1.1336,-1.1342,-1.1356,-1.1373,-1.1385,-1.1399,-1.1414,-1.1421,-1.1437,-1.1449,-1.1467,-1.1479,-1.1503,-1.1521,-1.1541,-1.1552,-1.1559,-1.156,-1.1563,-1.156,-1.1554,-1.1558,-1.1542,-1.156,-1.156,-1.156,-1.156,-1.156,-1.134,-1.135,-1.1366,-1.1382,-1.1395,-1.1408,-1.1419,-1.1432,-1.1447,-1.1467,-1.1474,-1.1493,-1.151,-1.1537,-1.1549,-1.1564,-1.1565,-1.1569,-1.157,-1.1571,-1.157,-1.1552,-1.1568,-1.1568,-1.1568,-1.1568,-1.1568,0,-1.135,-1.1361,-1.1375,-1.1395,-1.1408,-1.1413,-1.143,-1.144,-1.1456,-1.1472,-1.1487,-1.1508,-1.1526,-1.1543,-1.1562,-1.1571,-1.1575,-1.1576,-1.1576,-1.1578,-1.1569,-1.1564,-1.1573,-1.1573,-1.1573,-1.1573,-1.1573,-1.1573,-1.1356,-1.1373,-1.1381,-1.1405,-1.1416,-1.1434,-1.1443,-1.1456,-1.1469,-1.1492,-1.1507,-1.1517,-1.1534,-1.1555,-1.1572,-1.1576,-1.1583,-1.1583,-1.1589,-1.1579,-1.1579,-1.1578,-1.1574,-1.1585,-1.1585,-1.1597,-1.1597,-1.1597]},{"header":{"parameterUnit":"m.s-1","parameterCategory":1,"la1":30.2991,"la2":30.254,"lo1":-89.0895,"lo2":-89.0444,"dy":0.0017,"dx":0.0017,"nx":28,"ny":28,"refTime":"2025-03-17T03:00:00:Z","depth":0,"parameterNumber":3,"parameterNumberName":"V-component_of_WINDS"},"data":[0,0,0,0,0,0,0,0,0,0,0,0,0,0,0,0,0,0,0,0,0,0,0,0,0,0,0,0,0,0,0,0,0,0,0,0,0,0,0,0,0,0,0,0,0,0,0,0,0,0,0,0,0,0,0,0,0,0,6.9024,6.9025,0,6.9108,6.9109,6.911,6.9048,6.9046,6.9043,6.904,6.912,6.9124,6.9129,0,0,0,0,0,0,0,0,0,0,0,0,0,6.8804,6.8808,6.9024,6.9025,6.9026,6.9108,6.9109,6.911,6.9049,6.9046,6.9042,6.9039,6.9118,6.9124,6.9129,0,0,0,0,0,0,0,0,0,0,0,0,0,6.8894,6.881,6.9024,6.9006,6.9005,6.9107,6.9109,6.911,6.905,6.9045,6.9041,6.9038,6.9116,6.9123,6.913,6.9253,0,0,6.9151,6.9154,0,0,0,0,0,0,0,0,6.8889,6.8903,6.9007,6.9007,6.9006,6.9064,6.906,6.9158,6.9051,6.9032,6.904,6.9036,6.9104,6.9111,6.9136,6.9256,6.926,6.9152,6.9156,6.9159,6.9161,0,0,0,0,0,0,0,6.8883,6.8899,6.9057,6.9009,6.9008,6.8991,6.8999,6.9078,6.9089,6.9034,6.9029,6.9041,6.9103,6.9129,6.9137,6.9261,6.9151,6.9157,6.9162,6.9164,6.9484,6.9488,0,0,0,0,0,0,6.888,6.8894,6.9054,6.9059,6.8937,6.8998,6.9008,6.9049,6.9088,6.9091,6.9044,6.9037,6.9119,6.9129,6.914,6.9284,6.9159,6.9165,6.9169,6.9479,6.9485,6.9489,0,0,0,0,0,0,6.8875,6.8895,6.9051,6.8976,6.8994,6.9006,6.9053,6.9053,6.9079,6.9096,6.9097,6.9069,6.9117,6.913,6.9225,6.9286,6.9168,6.9174,6.9474,6.9481,6.9487,6.9575,0,0,0,0,0,0,6.8869,6.8893,6.8942,6.8977,6.8999,6.9137,6.9057,6.9057,6.9092,6.9085,6.912,6.9122,6.9115,6.9215,6.9232,6.9293,6.918,6.9469,6.9477,6.9485,6.9567,6.9584,6.9598,0,0,0,0,0,6.8861,6.8963,6.8945,6.8964,6.906,6.9141,6.9153,6.9143,6.9098,6.9145,6.9156,6.9121,6.9277,6.9225,6.9244,6.9308,6.9465,6.9475,6.9484,6.956,6.958,6.9598,0,0,0,0,0,0,6.8932,6.8967,6.8947,6.9064,6.91,6.913,6.919,6.9166,6.9215,6.9205,6.919,6.9198,6.9297,6.9312,6.9254,6.9428,6.9363,6.9377,6.9414,6.9434,6.945,6.9443,6.9186,0,0,0,0,0,6.8962,6.9027,6.9053,6.9152,6.9172,6.9178,6.9213,6.9203,6.9239,6.9253,6.9271,6.9305,6.9361,6.9399,6.9452,6.9569,6.9574,6.9622,6.9638,6.9651,6.9663,6.9723,6.9744,6.9521,6.9521,6.9521,0,0,6.9022,6.9049,6.9091,6.9167,6.9194,6.9259,6.9191,6.9264,6.9311,6.9264,6.9354,6.9368,6.9405,6.9512,6.9559,6.9527,6.9726,6.9664,6.9674,6.9678,6.9735,6.9756,6.9775,6.9528,6.9527,6.9526,0,0,6.9166,6.9194,6.928,6.9308,6.9351,6.9354,6.9375,6.9409,6.9417,6.9508,6.9473,6.9528,6.9627,6.9654,6.9681,6.9834,6.9803,6.9852,6.9933,6.9992,7.001,7.0025,7.0077,7.0096,6.9863,6.9864,6.9864,0,6.9235,6.9334,6.9326,6.9401,6.9434,6.9396,6.948,6.9508,6.9565,6.9587,6.9551,6.9673,6.9695,6.9806,6.9843,6.9867,6.9888,6.9846,7.0008,7.0024,7.0038,7.0087,7.0107,6.9869,6.9868,6.9868,6.9867,0,6.9416,6.9485,6.9549,6.9606,6.9647,6.9726,6.9726,6.9768,6.9755,6.9761,6.9853,6.9879,6.9935,6.9961,6.9948,7.0069,7.0048,7.0011,6.9945,7.0065,7.0111,7.013,6.9877,6.9875,6.9873,6.9872,0,0,6.9605,6.9658,6.9681,6.9705,6.9749,6.9801,6.9877,6.9935,6.9969,7.001,7.0071,7.0155,7.0121,7.0151,7.014,7.0193,7.0309,7.0148,7.0149,7.0175,7.0441,7.0467,7.0489,7.029,7.0294,7.0296,7.0437,0,6.9749,6.9885,6.9879,7.0004,7.0066,7.0031,7.0097,7.0129,7.0137,7.0189,7.0197,7.0256,7.0207,7.0225,7.0275,7.0284,7.0362,7.0274,7.0344,7.0346,7.0333,7.0514,7.0542,7.0673,7.0455,7.0458,7.0461,0,6.9935,6.9983,7.0116,7.0149,7.0174,7.0234,7.0285,7.0336,7.0371,7.0373,7.0407,7.0388,7.0462,7.0396,7.0496,7.0437,7.0465,7.0474,7.0479,7.0483,7.0409,7.052,7.0715,7.0734,7.0489,7.0487,7.0485,0,7.0057,7.0155,7.0246,7.0268,7.031,7.0352,7.0371,7.0402,7.0437,7.0481,7.0502,7.0554,7.0581,7.062,7.0614,7.0568,7.0715,7.065,7.0716,7.0716,7.0747,7.0745,7.0947,7.077,7.0769,7.0769,7.0769,0,7.0217,7.0298,7.0301,7.0357,7.0446,7.0437,7.0525,7.0539,7.0567,7.0622,7.0595,7.0648,7.0638,7.0689,7.0685,7.0767,7.078,7.0782,7.0779,7.0783,7.0782,7.0799,7.0789,7.0774,7.0773,7.0772,7.0771,0,7.0367,7.0372,7.0469,7.0501,7.051,7.0575,7.06,7.0652,7.0657,7.0728,7.0744,7.0752,7.0811,7.081,7.0877,7.0874,7.0974,7.0962,7.0963,7.0959,7.1025,7.1018,7.1243,7.1271,7.1078,7.108,7.1081,0,7.0467,7.0529,7.0568,7.0605,7.0626,7.0686,7.072,7.0714,7.0751,7.0795,7.084,7.0897,7.0942,7.1038,7.1048,7.1099,7.1086,7.1162,7.1093,7.1094,7.1084,7.1079,7.1084,7.1174,7.1176,7.1178,7.118,0,7.0644,7.0644,7.0697,7.0751,7.0794,7.0835,7.0873,7.0904,7.0901,7.0943,7.1004,7.104,7.1108,7.1164,7.1212,7.1228,7.1203,7.1201,7.1219,7.1222,7.1219,7.1219,7.0996,7.1196,7.1194,7.1193,7.1192,7.1191,7.0771,7.0824,7.0859,7.0918,7.0946,7.0982,7.1032,7.1044,7.1096,7.1152,7.1145,7.1212,7.1243,7.1306,7.1327,7.1377,7.135,7.1376,7.1382,7.1388,7.1395,7.1213,7.1386,7.1386,7.1385,7.1385,7.1385,0,7.0944,7.0965,7.102,7.1075,7.1121,7.1095,7.1135,7.1174,7.1235,7.1268,7.1313,7.1382,7.1435,7.145,7.1502,7.1539,7.1528,7.1552,7.1548,7.1552,7.1417,7.1396,7.156,7.156,7.156,7.156,7.156,7.156,7.104,7.1127,7.113,7.123,7.125,7.1317,7.1342,7.1374,7.14,7.1478,7.1524,7.1534,7.1558,7.1611,7.1658,7.1661,7.168,7.1708,7.1706,7.1579,7.1562,7.1545,7.1524,7.1713,7.1713,7.1836,7.1837,7.1838]}]]